Visibility
15.0 15.0 15.0 15.0 15.0 15.0 15.0 15.0 15.0 15.0 15.0 15.0 15.0 15.0 15.0 15.0 15.0 15.0 15.0 15.0 15.0 15.0 15.0 15.0 15.0 15.0 15.0 15.0 15.0 15.0 15.0 15.0 15.0 15.0 15.0 15.0 15.0 15.0 15.0 15.0 15.0 15.0 15.0
15.0 15.0 15.0 15.0 15.0 15.0 15.0 15.0 15.0 15.0 15.0 15.0 15.0 15.0 15.0 15.0 15.0 15.0 15.0 15.0 15.0 15.0 15.0 15.0 15.0 15.0 15.0 15.0 15.0 15.0 15.0 15.0 15.0 15.0 15.0 15.0 15.0 15.0 15.0 15.0 15.0 15.0 15.0
15.0 15.0 15.0 15.0 15.0 15.0 15.0 15.0 15.0 15.0 15.0 15.0 15.0 15.0 15.0 15.0 15.0 15.0 15.0 15.0 15.0 15.0 15.0 15.0 15.0 15.0 15.0 15.0 15.0 15.0 15.0 15.0 15.0 15.0 13.9 15.0 15.0 15.0 15.0 15.0 15.0 15.0 15.0
15.0 15.0 15.0 15.0 15.0 15.0 15.0 15.0 15.0 15.0 15.0 15.0 15.0 15.0 15.0 15.0 15.0 15.0 15.0 15.0 15.0 15.0 15.0 15.0 15.0 15.0 15.0 15.0 15.0 15.0 15.0 15.0 15.0 15.0 15.0 15.0 15.0 5.4 12.9 15.0 15.0 15.0 15.0
15.0 15.0 15.0 15.0 15.0 15.0 15.0 15.0 15.0 15.0 15.0 15.0 15.0 15.0 15.0 15.0 15.0 15.0 15.0 15.0 15.0 15.0 15.0 10.4 15.0 15.0 15.0 15.0 15.0 15.0 15.0 15.0 15.0 15.0 15.0 15.0 15.0 15.0 9.9 13.8 6.2 11.5 15.0
15.0 15.0 15.0 15.0 15.0 15.0 15.0 15.0 15.0 15.0 15.0 15.0 15.0 15.0 15.0 15.0 15.0 15.0 15.0 15.0 15.0 15.0 15.0 14.8 15.0 15.0 15.0 14.9 15.0 15.0 15.0 15.0 15.0 15.0 15.0 15.0 15.0 15.0 3.1 15.0 14.7 15.0 15.0
15.0 15.0 15.0 15.0 15.0 15.0 15.0 15.0 15.0 15.0 15.0 15.0 15.0 15.0 15.0 15.0 15.0 15.0 15.0 15.0 15.0 15.0 15.0 15.0 15.0 15.0 15.0 15.0 15.0 15.0 15.0 13.3 15.0 15.0 15.0 15.0 12.0 15.0 15.0 13.7 15.0 15.0 15.0
15.0 15.0 15.0 15.0 15.0 15.0 15.0 15.0 15.0 15.0 15.0 15.0 15.0 15.0 15.0 15.0 15.0 15.0 15.0 15.0 15.0 15.0 15.0 15.0 4.4 15.0 15.0 15.0 15.0 15.0 15.0 15.0 15.0 13.4 15.0 15.0 15.0 15.0 15.0 15.0 14.2 11.4 15.0
15.0 15.0 15.0 15.0 15.0 15.0 15.0 15.0 15.0 15.0 15.0 15.0 15.0 15.0 15.0 15.0 15.0 15.0 15.0 15.0 15.0 15.0 15.0 13.5 15.0 15.0 15.0 15.0 15.0 15.0 15.0 15.0 15.0 15.0 15.0 15.0 15.0 15.0 12.2 12.2 15.0 15.0 6.6
15.0 15.0 15.0 15.0 15.0 15.0 15.0 15.0 15.0 15.0 15.0 15.0 15.0 15.0 15.0 15.0 15.0 15.0 15.0 15.0 15.0 15.0 15.0 15.0 15.0 15.0 15.0 15.0 15.0 15.0 15.0 6.4 15.0 15.0 15.0 15.0 14.2 6.6 3.4 3.6 5.4 14.5 5.4
15.0 15.0 15.0 15.0 15.0 15.0 15.0 15.0 15.0 15.0 15.0 15.0 15.0 15.0 15.0 15.0 15.0 15.0 15.0 15.0 15.0 15.0 15.0 3.0 15.0 15.0 15.0 15.0 15.0 15.0 2.8 4.9 5.6 15.0 13.2 3.5 3.3 2.9 3.5 3.0 3.5 3.5 3.6
15.0 15.0 15.0 15.0 15.0 15.0 15.0 15.0 15.0 15.0 15.0 15.0 15.0 15.0 15.0 15.0 15.0 15.0 15.0 15.0 15.0 15.0 15.0 6.0 15.0 15.0 15.0 4.3 14.0 15.0 7.7 15.0 15.0 15.0 8.2 2.7 9.7 1.5 1.8 3.7 2.6 2.1 2.3
11.6 15.0 15.0 15.0 15.0 15.0 15.0 15.0 15.0 15.0 15.0 15.0 15.0 15.0 15.0 15.0 15.0 15.0 0.1 3.6 15.0 15.0 15.0 4.1 15.0 15.0 10.7 2.2 2.3 15.0 8.3 0.4 2.7 3.0 14.6 1.5 5.7 3.9 4.0 1.7 2.4 3.4 6.1
15.0 15.0 15.0 5.7 15.0 15.0 15.0 15.0 15.0 15.0 15.0 15.0 15.0 15.0 15.0 15.0 14.0 6.5 0.2 0.7 12.4 15.0 0.2 13.4 7.0 2.2 14.4 15.0 15.0 14.6 14.6 0.5 0.2 0.1 9.2 7.0 2.5 3.1 2.6 3.4 8.7 15.0 8.3
15.0 15.0 15.0 12.5 7.2 14.0 14.9 15.0 15.0 15.0 15.0 15.0 15.0 15.0 15.0 15.0 15.0 15.0 0.2 0.1 0.4 14.6 0.3 0.2 0.5 1.7 10.5 14.5 12.6 9.0 7.3 12.6 4.4 2.3 1.7 10.3 4.8 4.1 4.9 5.6 6.8 13.0 15.0
15.0 15.0 15.0 15.0 15.0 12.0 9.8 13.6 15.0 15.0 15.0 15.0 15.0 15.0 15.0 15.0 15.0 13.9 0.2 0.1 0.1 0.9 15.0 2.1 1.0 3.9 15.0 14.5 10.7 14.2 7.3 12.0 15.0 8.9 1.8 6.2 14.6 9.1 10.1 5.3 5.0 10.8 15.0
15.0 15.0 15.0 15.0 15.0 15.0 13.7 8.1 15.0 15.0 15.0 15.0 15.0 15.0 15.0 15.0 15.0 15.0 0.2 0.1 0.2 14.1 1.2 7.5 14.9 9.3 11.6 11.1 12.4 11.4 7.1 7.4 14.1 6.6 9.1 13.0 5.4 10.8 8.6 10.7 15.0 14.4 15.0
15.0 15.0 15.0 15.0 15.0 15.0 14.3 13.4 12.8 15.0 15.0 15.0 15.0 15.0 15.0 15.0 15.0 15.0 0.2 0.1 0.6 13.7 5.9 6.8 13.3 4.2 3.3 3.6 4.6 6.0 11.7 5.3 12.9 4.2 2.3 12.4 15.0 15.0 14.9 15.0 15.0 15.0 15.0
8.8 12.6 15.0 15.0 15.0 15.0 11.2 12.1 9.6 15.0 15.0 15.0 15.0 15.0 15.0 15.0 15.0 15.0 5.9 0.3 15.0 9.4 6.2 11.1 6.0 14.5 7.5 4.3 11.0 10.8 13.7 12.3 15.0 14.8 14.9 15.0 15.0 8.9 15.0 15.0 15.0 15.0 15.0
7.6 3.6 15.0 14.8 15.0 15.0 15.0 13.5 9.5 8.6 15.0 15.0 15.0 15.0 15.0 15.0 15.0 15.0 15.0 4.9 10.0 15.0 15.0 15.0 15.0 11.8 8.5 4.4 3.8 12.9 7.8 7.8 15.0 9.3 14.7 12.0 15.0 15.0 15.0 15.0 15.0 15.0 15.0
15.0 8.2 15.0 15.0 15.0 15.0 15.0 2.9 6.4 1.2 15.0 15.0 15.0 15.0 15.0 15.0 15.0 15.0 4.3 15.0 12.7 11.7 7.2 15.0 15.0 15.0 6.1 5.3 4.8 4.7 5.2 8.8 8.2 11.4 15.0 15.0 15.0 15.0 15.0 15.0 15.0 15.0 15.0
15.0 15.0 15.0 15.0 15.0 11.1 3.6 13.8 15.0 11.3 11.6 15.0 15.0 15.0 15.0 15.0 15.0 15.0 15.0 9.0 9.0 14.9 15.0 15.0 15.0 15.0 13.1 5.3 9.6 14.9 15.0 15.0 15.0 15.0 15.0 15.0 15.0 15.0 15.0 15.0 15.0 15.0 15.0
15.0 15.0 6.6 15.0 15.0 15.0 0.5 15.0 8.6 6.0 14.5 14.1 15.0 15.0 15.0 15.0 15.0 15.0 14.7 5.4 10.3 15.0 15.0 14.0 15.0 15.0 15.0 5.6 6.3 11.3 13.2 15.0 15.0 15.0 15.0 15.0 15.0 15.0 15.0 15.0 15.0 15.0 15.0
9.4 15.0 7.4 15.0 15.0 15.0 7.7 0.4 4.6 0.1 0.2 9.0 15.0 15.0 15.0 15.0 15.0 15.0 13.7 7.1 13.7 4.5 10.7 15.0 15.0 15.0 15.0 14.2 6.4 5.4 8.9 13.2 15.0 6.2 15.0 15.0 15.0 15.0 15.0 15.0 15.0 15.0 15.0
0.1 0.4 1.5 1.0 15.0 15.0 1.3 6.0 0.3 6.0 1.8 15.0 15.0 15.0 15.0 15.0 15.0 15.0 15.0 11.3 12.4 8.3 8.8 15.0 15.0 15.0 15.0 15.0 15.0 15.0 12.9 12.7 10.4 8.0 4.9 14.5 15.0 15.0 15.0 15.0 15.0 15.0 15.0
0.2 0.2 0.3 3.7 4.4 15.0 2.6 0.4 1.5 0.7 0.4 6.5 2.5 5.0 15.0 15.0 15.0 15.0 15.0 13.6 10.5 14.8 15.0 15.0 9.9 7.0 4.4 8.0 15.0 15.0 15.0 15.0 7.2 9.8 15.0 15.0 15.0 15.0 15.0 15.0 15.0 15.0 15.0